Location: Bernay
(48.6766°N, 2.9386°E)
Time: 09:48:10
(UTC+00:00)

IRS-P3 - Pass Details

Date: 12 January 2026
Orbit: 811 x 815 km, 99.0° (Epoch: 19 February)

Event Time Altitude Azimuth Distance (km) Brightness Sun altitude
Rises 17:09:52 0° 148° (SSE) 3,321 7.2 -8.7°
Reaches altitude 10° 17:12:14 10° 144° (SE) 2,394 6.4 -9.1°
Maximum altitude 17:17:22 54° 68° (ENE) 979 4.2 -9.9°
Drops below altitude 10° 17:22:33 10° 353° (N) 2,411 6.4 -10.7°
Sets 17:24:57 0° 349° (NNW) 3,347 7.2 -11.0°
